FW7044 Weather Reports


Display with metric or nautical units.
time (UTC)temp
F
wind
direction
speed
MPH
gust
MPH
rain 1hr
in
rain 24hr
in
rain mn
in
humidity
%
barometer
mb
20260902082017 79 323 0.0 0.0 0.00 0.00 0.00 99 1015.4
20260902081513 79 323 0.0 0.0 0.00 0.00 0.00 99 1015.3
20260902081012 79 322 0.0 0.0 0.00 0.00 0.00 99 1015.3
20260902080508 79 322 0.0 0.0 0.00 0.00 0.00 99 1015.3
20260902080004 79 322 0.0 0.0 0.00 0.00 0.00 99 1015.5
20260902075459 79 323 0.0 0.0 0.00 0.00 0.00 99 1015.2
20260902074955 79 322 0.0 0.0 0.00 0.00 0.00 99 1015.3
20260902074450 79 322 0.0 0.0 0.00 0.00 0.00 99 1015.6
20260902073950 78 322 0.0 0.0 0.00 0.00 0.00 99 1015.6
20260902073446 78 322 0.0 0.0 0.00 0.00 0.00 99 1015.7
20260902072942 78 323 0.0 0.0 0.00 0.00 0.00 99 1015.6
20260902072438 78 323 0.0 0.0 0.00 0.00 0.00 99 1015.4
20260902071934 78 317 0.0 0.0 0.00 0.00 0.00 99 1015.6
20260902071433 79 316 0.0 0.0 0.00 0.00 0.00 99 1015.6
20260902070930 79 317 0.0 0.0 0.00 0.00 0.00 99 1015.6
20260902070425 79 316 0.0 0.0 0.00 0.00 0.00 99 1015.6
20260902065924 78 316 0.0 0.0 0.00 0.00 0.00 99 1015.5
20260902065419 78 317 0.0 0.0 0.00 0.00 0.00 99 1015.2
20260902064914 78 318 0.0 0.0 0.00 0.00 0.00 99 1015.4
20260902064410 78 307 0.0 0.0 0.00 0.00 0.00 99 1015.7
20260902063906 79 306 0.0 0.0 0.00 0.00 0.00 99 1015.6
20260902063405 78 322 0.0 0.0 0.00 0.00 0.00 99 1015.9
20260902062901 78 330 0.0 0.0 0.00 0.00 0.00 99 1015.7
20260902062359 78 288 0.0 0.0 0.00 0.00 0.00 99 1015.8
20260902061859 78 288 0.0 0.0 0.00 0.00 0.00 99 1015.8
20260902061354 78 288 0.0 0.0 0.00 0.00 0.00 99 1015.8
20260902060851 79 288 0.0 0.0 0.00 0.00 0.00 99 1015.7
20260902060346 78 288 0.0 0.0 0.00 0.00 0.00 99 1015.7
20260902055842 78 287 0.0 0.0 0.00 0.00 0.00 99 1015.9
20260902055338 79 289 0.0 0.0 0.00 0.00 0.00 99 1015.8
20260902054833 79 289 0.0 0.0 0.00 0.00 0.00 99 1016.0
20260902054329 79 289 0.0 0.0 0.00 0.00 0.00 99 1016.0
20260902053824 79 289 0.0 0.0 0.00 0.00 0.00 99 1015.8
20260902053319 79 289 0.0 0.0 0.00 0.00 0.00 99 1015.6
20260902052818 79 289 0.0 0.0 0.00 0.00 0.00 99 1015.9
20260902052313 79 287 0.0 0.0 0.00 0.00 0.00 99 1015.8
20260902051808 79 287 0.0 0.0 0.00 0.00 0.00 99 1016.1
20260902051308 79 287 0.0 0.0 0.00 0.00 0.00 99 1016.0
20260902050803 79 287 0.0 0.0 0.00 0.00 0.00 99 1016.3
20260902050257 79 287 0.0 0.0 0.00 0.00 0.00 99 1016.2
20260902045757 79 287 0.0 0.0 0.00 0.00 0.00 99 1016.1
20260902045253 79 287 0.0 0.0 0.00 0.00 0.00 99 1016.1
20260902044749 79 287 0.0 0.0 0.00 0.00 0.00 99 1016.0
20260902044244 79 286 0.0 0.0 0.00 0.00 0.00 99 1016.1
20260902043739 79 286 0.0 0.0 0.00 0.00 0.00 99 1016.3
20260902043235 79 286 0.0 0.0 0.00 0.00 0.00 99 1016.2
20260902042733 79 288 0.0 0.0 0.00 0.00 0.00 99 1016.1
20260902042228 79 288 0.0 0.0 0.00 0.00 0.00 99 1016.2
20260902041724 79 288 0.0 0.0 0.00 0.00 0.00 99 1016.2
20260902041218 79 288 0.0 0.0 0.00 0.00 0.00 99 1016.1
20260902040718 79 288 0.0 0.0 0.00 0.00 0.00 99 1016.3
20260902040213 79 288 0.0 0.0 0.00 0.00 0.00 99 1016.3
20260902035712 80 287 0.0 0.0 0.00 0.21 0.21 99 1016.3
20260902035208 80 287 0.0 0.0 0.00 0.21 0.21 99 1016.5
20260902034707 80 286 0.0 0.0 0.00 0.21 0.21 99 1016.4
20260902034206 80 286 0.0 0.0 0.00 0.21 0.21 99 1016.6
20260902033705 80 286 0.0 0.0 0.00 0.21 0.21 99 1016.6
20260902033200 80 287 0.0 0.0 0.00 0.21 0.21 99 1016.7
20260902032659 80 322 0.0 0.0 0.00 0.21 0.21 99 1016.8
20260902032154 80 324 0.0 0.0 0.00 0.21 0.21 99 1016.6
20260902031648 80 124 0.0 0.0 0.00 0.21 0.21 99 1016.7
20260902031144 80 127 0.0 0.0 0.00 0.21 0.21 99 1016.7
20260902030640 80 123 0.0 0.0 0.00 0.21 0.21 99 1016.9
20260902030138 80 123 0.0 0.0 0.00 0.21 0.21 99 1016.6
20260902025638 80 123 0.0 0.0 0.00 0.21 0.21 99 1016.9
20260902025134 80 123 0.0 0.0 0.00 0.21 0.21 99 1017.0
20260902024629 80 122 0.0 0.0 0.00 0.21 0.21 99 1017.0
20260902024124 80 122 0.0 0.0 0.00 0.21 0.21 99 1016.9
20260902023620 81 107 0.0 0.0 0.00 0.21 0.21 99 1016.9
20260902023114 81 107 0.0 0.0 0.00 0.21 0.21 99 1017.0
20260902022614 81 107 0.0 0.0 0.00 0.21 0.21 99 1017.0
20260902022110 81 107 0.0 0.0 0.00 0.21 0.21 99 1016.9
20260902021605 81 107 0.0 0.0 0.00 0.21 0.21 99 1017.0
20260902021100 81 107 0.0 0.0 0.00 0.21 0.21 99 1016.8
20260902020556 81 108 0.0 0.0 0.00 0.21 0.21 99 1016.9
20260902020051 81 110 0.0 0.0 0.00 0.21 0.21 99 1016.7
20260902015547 81 109 0.0 0.0 0.00 0.21 0.21 98 1016.6
20260902015043 82 110 0.0 0.0 0.00 0.21 0.21 98 1016.6
20260902014539 82 108 0.0 0.0 0.00 0.21 0.21 97 1016.7
20260902014034 82 107 0.0 0.0 0.00 0.21 0.21 97 1016.8
20260902013533 82 107 0.0 0.0 0.00 0.21 0.21 96 1016.5
20260902013029 82 107 0.0 0.0 0.00 0.21 0.21 96 1016.5
20260902012524 82 107 0.0 0.0 0.00 0.21 0.21 96 1016.4
20260902012020 82 109 0.0 0.0 0.00 0.21 0.21 96 1016.6
20260902011515 83 123 0.0 0.0 0.00 0.21 0.21 96 1016.4
20260902011015 83 115 1.0 2.0 0.00 0.21 0.21 95 1016.5
20260902010514 83 305 0.0 0.0 0.00 0.21 0.21 95 1016.3
20260902010010 83 313 0.0 0.0 0.00 0.21 0.21 95 1016.5
20260902005508 83 330 0.0 0.0 0.00 0.21 0.21 95 1016.3
20260902005004 83 25 0.0 0.0 0.00 0.21 0.21 95 1016.3
20260902004503 84 333 0.0 0.0 0.00 0.21 0.21 96 1016.4
20260902003959 83 359 4.0 6.0 0.00 0.21 0.21 96 1016.3
20260902003454 83 333 0.0 0.0 0.00 0.21 0.21 97 1016.3
20260902002949 83 315 0.0 1.0 0.00 0.21 0.21 97 1016.5
20260902002445 83 312 0.0 0.0 0.00 0.21 0.21 97 1016.3
20260902001944 83 309 0.0 0.0 0.00 0.21 0.21 97 1016.4
20260902001439 83 313 0.0 0.0 0.00 0.21 0.21 96 1016.4
20260902000934 83 314 0.0 0.0 0.00 0.21 0.21 96 1016.4
20260902000429 84 314 0.0 0.0 0.00 0.21 0.21 96 1016.4
20260901235924 84 314 0.0 0.0 0.00 0.21 0.21 95 1016.5
20260901235419 84 314 0.0 0.0 0.00 0.21 0.21 94 1016.5
20260901234914 84 315 0.0 0.0 0.00 0.21 0.21 94 1016.4
20260901234408 84 311 0.0 0.0 0.00 0.21 0.21 94 1016.4
20260901233903 84 314 0.0 0.0 0.00 0.21 0.21 94 1016.3
20260901233358 85 293 0.0 0.0 0.00 0.21 0.21 93 1016.2
20260901232855 85 328 0.0 0.0 0.00 0.21 0.21 93 1016.3
20260901232354 85 324 0.0 0.0 0.00 0.21 0.21 93 1016.2
20260901231850 85 314 0.0 0.0 0.00 0.21 0.21 92 1016.1
20260901231347 86 320 0.0 0.0 0.00 0.21 0.21 92 1016.3
20260901230843 86 315 0.0 0.0 0.00 0.21 0.21 91 1016.1
20260901230342 86 329 0.0 0.0 0.00 0.21 0.21 91 1016.2
20260901225838 86 294 0.0 0.0 0.00 0.21 0.21 91 1016.0
20260901225337 86 355 0.0 0.0 0.00 0.21 0.21 91 1016.0
20260901224832 86 324 0.0 1.0 0.00 0.21 0.21 90 1015.9
20260901224329 86 349 0.0 1.0 0.00 0.21 0.21 90 1016.2
20260901223825 86 338 0.0 0.0 0.00 0.21 0.21 90 1016.2
20260901223320 86 314 0.0 1.0 0.00 0.21 0.21 89 1015.9
20260901222815 86 334 0.0 0.0 0.00 0.21 0.21 89 1016.0
20260901222312 87 338 0.0 0.0 0.00 0.21 0.21 89 1016.2
20260901221808 87 31 0.0 0.0 0.00 0.21 0.21 89 1016.2
20260901221303 87 34 0.0 0.0 0.00 0.21 0.21 89 1016.0
20260901220802 87 326 0.0 0.0 0.00 0.21 0.21 88 1015.9
20260901220302 87 94 2.0 2.0 0.00 0.21 0.21 88 1015.9
20260901215801 87 105 2.0 2.0 0.00 0.21 0.21 87 1015.8
20260901215300 87 108 3.0 6.0 0.00 0.21 0.21 86 1015.6
20260901214758 87 23 2.0 3.0 0.00 0.21 0.21 86 1015.5
20260901214258 87 324 0.0 1.0 0.00 0.21 0.21 85 1015.5
20260901213753 87 26 3.0 7.0 0.00 0.21 0.21 84 1015.5
20260901213252 88 1 5.0 7.0 0.00 0.21 0.21 84 1015.7
20260901212752 88 100 2.0 3.0 0.00 0.21 0.21 84 1015.4
20260901212248 88 125 0.0 0.0 0.00 0.21 0.21 84 1015.4
20260901211743 88 10 4.0 5.0 0.00 0.21 0.21 84 1015.5
20260901211239 88 342 1.0 2.0 0.00 0.21 0.21 83 1015.4
20260901210735 89 70 1.0 1.0 0.00 0.21 0.21 83 1015.4
20260901210230 88 257 1.0 2.0 0.00 0.21 0.21 83 1015.4
20260901205727 88 39 1.0 1.0 0.00 0.21 0.21 83 1015.6
20260901205226 88 341 0.0 0.0 0.00 0.21 0.21 83 1015.6
20260901204722 88 106 3.0 5.0 0.00 0.21 0.21 83 1015.6
20260901204218 88 25 2.0 2.0 0.00 0.21 0.21 84 1015.7
20260901203712 89 58 3.0 5.0 0.00 0.21 0.21 82 1015.7
20260901203207 89 333 1.0 2.0 0.00 0.21 0.21 82 1015.8
20260901202707 89 13 1.0 2.0 0.00 0.21 0.21 81 1015.6
20260901202203 90 7 0.0 1.0 0.00 0.21 0.21 80 1015.9
20260901201658 92 160 1.0 2.0 0.00 0.21 0.21 78 1015.4
20260901201158 92 335 2.0 2.0 0.00 0.21 0.21 78 1015.6
20260901200657 93 103 9.0 13.0 0.00 0.21 0.21 77 1015.6
20260901200152 92 88 5.0 6.0 0.00 0.21 0.21 76 1015.6
20260901195650 91 11 3.0 6.0 0.00 0.21 0.21 78 1015.6
20260901195144 92 82 7.0 9.0 0.00 0.21 0.21 77 1015.7
20260901194640 93 121 6.0 9.0 0.00 0.21 0.21 76 1015.7
20260901194135 93 115 3.0 6.0 0.00 0.21 0.21 75 1016.0
20260901193631 93 336 4.0 7.0 0.00 0.21 0.21 76 1016.0
20260901193125 93 180 4.0 7.0 0.00 0.21 0.21 73 1015.9
20260901192620 93 53 2.0 2.0 0.00 0.21 0.21 75 1015.8
20260901192115 93 50 0.0 1.0 0.00 0.21 0.21 76 1016.0
20260901191611 93 152 6.0 9.0 0.00 0.21 0.21 76 1015.8
20260901191107 91 29 5.0 7.0 0.00 0.21 0.21 77 1015.7
20260901190602 91 335 1.0 3.0 0.00 0.21 0.21 79 1016.0
20260901185600 92 69 6.0 8.0 0.00 0.21 0.21 78 1016.3
20260901185059 94 72 2.0 2.0 0.00 0.21 0.21 77 1016.2
20260901184554 93 31 3.0 5.0 0.00 0.21 0.21 76 1016.1
20260901184049 94 22 4.0 5.0 0.00 0.21 0.21 75 1016.4
20260901183544 92 135 2.0 5.0 0.00 0.21 0.21 76 1016.2
20260901183040 94 44 2.0 5.0 0.00 0.21 0.21 73 1016.3
20260901182535 93 101 3.0 3.0 0.00 0.21 0.21 76 1016.3
20260901182030 94 216 1.0 1.0 0.00 0.21 0.21 75 1016.3
20260901181529 94 110 3.0 5.0 0.00 0.21 0.21 73 1016.3
20260901181029 94 268 1.0 1.0 0.00 0.21 0.21 74 1016.5
20260901180527 92 108 1.0 2.0 0.00 0.21 0.21 77 1016.6
20260901180022 93 48 2.0 2.0 0.00 0.21 0.21 76 1016.6
20260901175516 93 38 5.0 7.0 0.00 0.21 0.21 76 1016.6
20260901175017 92 69 1.0 1.0 0.00 0.21 0.21 78 1017.0
20260901174513 93 342 2.0 2.0 0.00 0.21 0.21 76 1016.8
20260901174008 93 80 1.0 1.0 0.00 0.21 0.21 75 1016.7
20260901173503 92 0 3.0 5.0 0.00 0.21 0.21 73 1016.9
20260901172959 93 344 2.0 6.0 0.00 0.21 0.21 77 1017.1
20260901172454 93 27 2.0 3.0 0.00 0.21 0.21 79 1017.0
20260901171952 93 275 1.0 1.0 0.00 0.21 0.21 76 1017.1
20260901171451 92 23 3.0 3.0 0.00 0.21 0.21 78 1017.2
20260901170950 91 322 2.0 2.0 0.00 0.21 0.21 79 1017.2
20260901170445 92 28 1.0 2.0 0.00 0.21 0.21 79 1017.3
20260901165944 90 358 0.0 0.0 0.00 0.21 0.21 81 1017.4
20260901165439 92 329 1.0 1.0 0.00 0.21 0.21 81 1017.3
20260901164935 91 134 3.0 5.0 0.00 0.21 0.21 79 1017.1
20260901164436 91 35 1.0 1.0 0.00 0.21 0.21 84 1017.5
20260901163931 91 354 2.0 5.0 0.00 0.21 0.21 83 1017.6
20260901163427 90 111 1.0 1.0 0.00 0.21 0.21 85 1017.2
20260901162925 90 344 4.0 5.0 0.00 0.21 0.21 86 1017.4
20260901162420 88 356 0.0 0.0 0.00 0.21 0.21 89 1017.5
20260901161919 88 312 0.0 0.0 0.00 0.21 0.21 94 1017.6
20260901161419 86 333 0.0 0.0 0.00 0.21 0.21 94 1017.6
20260901160914 86 333 0.0 0.0 0.07 0.21 0.21 95 1017.6
20260901160410 86 313 0.0 0.0 0.07 0.21 0.21 94 1017.8
20260901155909 87 326 0.0 1.0 0.00 0.20 0.20 91 1017.7
20260901155404 88 51 1.0 2.0 0.00 0.20 0.20 88 1017.8
20260901154901 90 3 1.0 2.0 0.00 0.20 0.20 83 1017.7
20260901154400 90 18 3.0 3.0 0.00 0.20 0.20 83 1017.8
20260901153855 90 327 3.0 3.0 0.00 0.20 0.20 83 1018.0
20260901153354 91 25 0.0 1.0 0.00 0.20 0.20 82 1017.8
20260901152853 89 343 0.0 0.0 0.00 0.20 0.20 82 1017.9
20260901152349 90 43 0.0 0.0 0.00 0.20 0.20 81 1018.1
20260901151843 92 0 2.0 3.0 0.00 0.20 0.20 78 1017.9
20260901151338 91 351 0.0 0.0 0.00 0.20 0.20 77 1017.8
20260901150837 91 349 1.0 2.0 0.00 0.20 0.20 78 1017.6
20260901150335 90 344 4.0 6.0 0.00 0.20 0.20 80 1017.9
20260901145832 89 323 1.0 1.0 0.00 0.20 0.20 81 1017.5
20260901145327 88 6 2.0 3.0 0.00 0.20 0.20 86 1017.7
20260901144822 89 59 0.0 1.0 0.00 0.20 0.20 89 1017.8
20260901144318 88 299 0.0 0.0 0.00 0.20 0.20 90 1017.8
20260901143814 88 297 0.0 0.0 0.00 0.20 0.20 90 1017.8
20260901143310 87 318 0.0 0.0 0.00 0.20 0.20 91 1017.4
20260901142805 87 325 1.0 1.0 0.00 0.20 0.20 92 1017.7
20260901142306 87 298 0.0 0.0 0.00 0.20 0.20 91 1017.6
20260901141800 88 322 0.0 1.0 0.00 0.20 0.20 89 1017.7
20260901141255 88 313 0.0 0.0 0.00 0.20 0.20 88 1017.4
20260901140754 89 288 0.0 0.0 0.00 0.20 0.20 91 1017.5
20260901140252 88 326 0.0 0.0 0.00 0.20 0.20 90 1017.6
20260901135748 88 331 0.0 0.0 0.00 0.20 0.20 90 1017.5
20260901135247 90 276 3.0 3.0 0.00 0.20 0.20 85 1017.6
20260901134744 89 330 0.0 0.0 0.00 0.20 0.20 86 1017.7
20260901134243 89 76 0.0 0.0 0.00 0.20 0.20 88 1017.6
20260901133743 88 10 1.0 2.0 0.00 0.20 0.20 89 1017.5
20260901133243 88 345 1.0 2.0 0.00 0.20 0.20 90 1017.1
20260901132741 89 34 0.0 0.0 0.00 0.20 0.20 90 1017.2
20260901132236 87 15 0.0 0.0 0.00 0.20 0.20 96 1017.2
20260901131731 85 3 0.0 0.0 0.00 0.20 0.20 99 1017.4
20260901131230 84 35 1.0 1.0 0.00 0.20 0.20 99 1017.3
20260901130725 84 11 0.0 1.0 0.00 0.20 0.20 99 1017.3
20260901130224 84 333 1.0 1.0 0.00 0.20 0.20 99 1017.3
20260901125722 84 333 0.0 0.0 0.00 0.20 0.20 99 1017.3
20260901125218 83 331 0.0 0.0 0.00 0.20 0.20 99 1017.2
20260901124712 83 355 0.0 1.0 0.00 0.20 0.20 99 1017.2
20260901124207 83 14 1.0 1.0 0.00 0.20 0.20 99 1017.1
20260901123707 83 348 0.0 0.0 0.00 0.20 0.20 99 1017.2
20260901123202 83 316 0.0 0.0 0.00 0.20 0.20 99 1017.2
20260901122700 82 337 0.0 0.0 0.00 0.20 0.20 99 1017.4
20260901122155 82 340 1.0 1.0 0.00 0.20 0.20 99 1016.9
20260901121649 82 340 1.0 2.0 0.00 0.20 0.20 99 1016.9
20260901121145 81 329 0.0 0.0 0.00 0.20 0.20 99 1016.9
20260901120644 81 333 2.0 2.0 0.00 0.20 0.20 99 1016.9
20260901120139 81 330 1.0 1.0 0.00 0.20 0.20 99 1016.9
20260901115635 80 329 1.0 1.0 0.00 0.20 0.20 99 1016.7
20260901115131 80 338 0.0 0.0 0.00 0.20 0.20 99 1016.8
20260901114628 80 321 0.0 0.0 0.00 0.20 0.20 99 1016.8
20260901114126 79 310 0.0 0.0 0.00 0.20 0.20 99 1016.7
20260901113625 78 333 1.0 1.0 0.00 0.20 0.20 99 1016.7
20260901113121 78 305 0.0 0.0 0.00 0.20 0.20 99 1016.6
20260901112621 78 305 0.0 0.0 0.00 0.20 0.20 99 1016.5
20260901112115 78 305 0.0 0.0 0.05 0.20 0.20 99 1016.4
20260901111614 78 320 0.0 0.0 0.05 0.20 0.20 99 1016.2
20260901111113 78 319 0.0 0.0 0.00 0.19 0.19 99 1016.3
20260901110609 78 319 0.0 0.0 0.00 0.19 0.19 99 1016.1
20260901110105 78 320 0.0 0.0 0.00 0.19 0.19 99 1016.2
20260901105601 78 319 0.0 0.0 0.00 0.19 0.19 99 1016.2
20260901105100 78 319 0.0 0.0 0.00 0.19 0.19 99 1016.2
20260901104557 78 319 0.0 0.0 0.00 0.19 0.19 99 1016.1
20260901104052 78 319 0.0 0.0 0.00 0.19 0.19 99 1016.0
20260901103551 78 319 0.0 0.0 0.00 0.19 0.19 99 1016.0
20260901103047 78 319 0.0 0.0 0.00 0.19 0.19 99 1016.0
20260901102546 78 319 0.0 0.0 0.00 0.19 0.19 99 1015.9
20260901102041 78 319 0.0 0.0 0.00 0.19 0.19 99 1016.0
20260901101537 78 319 0.0 0.0 0.00 0.19 0.19 99 1016.1
20260901101037 78 319 0.0 0.0 0.00 0.19 0.19 99 1016.0
20260901100536 78 319 0.0 0.0 0.00 0.19 0.19 99 1016.1
20260901100031 78 320 0.0 0.0 0.00 0.19 0.19 99 1016.0
20260901095529 78 320 0.0 0.0 0.00 0.19 0.19 99 1016.1
20260901095027 78 320 0.0 0.0 0.00 0.19 0.19 99 1015.9
20260901094522 78 319 0.0 0.0 0.00 0.19 0.19 99 1016.1
20260901094021 78 319 0.0 0.0 0.00 0.19 0.19 99 1016.0
20260901093516 78 319 0.0 0.0 0.00 0.19 0.19 99 1016.0
20260901093011 78 320 0.0 0.0 0.00 0.19 0.19 99 1015.8
20260901092508 78 320 0.0 0.0 0.00 0.19 0.19 99 1015.9
20260901092003 78 320 0.0 0.0 0.00 0.19 0.19 99 1015.9
20260901091458 78 320 0.0 0.0 0.00 0.19 0.19 99 1015.9
20260901090952 78 320 0.0 0.0 0.00 0.19 0.19 99 1016.2
20260901090452 78 321 0.0 0.0 0.00 0.19 0.19 99 1016.0
20260901085948 78 321 0.0 0.0 0.00 0.19 0.19 99 1016.0
20260901085443 78 320 0.0 0.0 0.00 0.19 0.19 99 1015.9
20260901084940 78 319 0.0 0.0 0.00 0.19 0.19 99 1016.1
20260901084436 79 319 0.0 0.0 0.00 0.19 0.19 99 1015.8
20260901083931 79 325 0.0 0.0 0.00 0.19 0.19 99 1015.9
20260901083431 79 325 0.0 0.0 0.00 0.19 0.19 99 1015.8
20260901082929 79 326 0.0 0.0 0.00 0.19 0.19 99 1016.0
20260901082425 79 346 0.0 0.0 0.00 0.19 0.19 99 1015.9